Location: Unspecified
(41.1850°N, 73.2650°W)
Time: 01:42:22
(UTC+00:00)

Cosmos 1980 Rocket - Pass Details

Date: 14 December 2025
Orbit: 830 x 847 km, 71.0° (Epoch: 14 January)

Event Time Altitude Azimuth Distance (km) Brightness Sun altitude
Rises 22:24:27 0° 205° (SSW) 3,386 6.1 -10.9°
Reaches altitude 10° 22:26:53 10° 206° (SSW) 2,452 5.3 -11.3°
Maximum altitude 22:32:31 81° 293° (WNW) 853 2.3 -12.3°
Drops below altitude 10° 22:38:11 10° 22° (NNE) 2,456 4.2 -13.3°
Enters shadow 22:39:06 - 23° (NNE) 2,808 4.5 -13.5°
